Regional Weather Roundup
Issued by NWS

Home | Current Version | Previous Version | Graphics & Text | Print | Product List | Glossary Off
Versions: 1 2 3 4 5 6 7 8 9 10 11 12 13 14 15 16 17 18 19 20 21 22 23 24 25 26 27 28 29 30 31 32 33 34 35 36 37 38 39 40 41 42 43 44 45 46 47 48 49 50

000
ASUS43 KLSX 061207
RWRMO

WEATHER SUMMARY FOR MISSOURI
NATIONAL WEATHER SERVICE SPRINGFIELD MO
700 AM CDT WED MAY 06 2015

NOTE: "FAIR" INDICATES FEW OR NO CLOUDS BELOW 12,000 FEET WITH NO
       SIGNIFICANT WEATHER AND/OR OBSTRUCTIONS TO VISIBILITY.
       CURRENT SKY AND/OR WEATHER CONDITIONS ARE NOT AVAILABLE FOR
       CHILLICOTHE AND FARMINGTON.

MOZ001>031-035>038-043-044-053-054-061300-
...NORTHERN AND WESTERN MISSOURI...

CITY           SKY/WX    TMP DP  RH WIND       PRES   REMARKS
KANSAS CTY INT LGT RAIN  66  58  75 S17G29    29.93S
6HR MIN TEMP:  65; 6HR MAX TEMP:  67; 6HR PCP: TRACE;

KANSAS C DTWN  CLOUDY    70  56  61 S16G24    29.93S
6HR MIN TEMP:  69; 6HR MAX TEMP:  72; 6HR PCP: TRACE;

LEE`S SUMMIT   CLOUDY    67  57  70 S13G20    29.96S
6HR MIN TEMP:  67; 6HR MAX TEMP:  69;

ST JOSEPH      CLOUDY    66  57  72 SE13      29.92S
6HR MIN TEMP:  63; 6HR MAX TEMP:  67; 6HR PCP: TRACE;

CHILLICOTHE      N/A     65  56  72 SE7       30.00S
6HR MIN TEMP:  65; 6HR MAX TEMP:  69;

KIRKSVILLE     PTCLDY    64  56  75 S10       30.06S
6HR MIN TEMP:  61; 6HR MAX TEMP:  65;


$$
MOZ066>068-077>081-088>096-101>105-061300-
...SOUTHWEST MISSOURI...

CITY           SKY/WX    TMP DP  RH WIND       PRES   REMARKS
SPRINGFIELD    CLOUDY    66  53  63 SE12      30.04R
6HR MIN TEMP:  65; 6HR MAX TEMP:  69;

JOPLIN         LGT RAIN  63  61  93 S14       30.03R
6HR MIN TEMP:  63; 6HR MAX TEMP:  70; 6HR PCP:  0.21;


$$
MOZ032>034-039>042-045>050-055>058-069>072-061300-
...CENTRAL MISSOURI...

CITY           SKY/WX    TMP DP  RH WIND       PRES   REMARKS
COLUMBIA       PTCLDY    63  53  70 SE9       30.07R
6HR MIN TEMP:  61; 6HR MAX TEMP:  66;

JEFFERSON CITY PTCLDY    64  52  64 E10       30.07R
6HR MIN TEMP:  61; 6HR MAX TEMP:  65;

ROLLA          CLEAR     62  51  67 SE12      30.09R
6HR MIN TEMP:  61; 6HR MAX TEMP:  66;

SEDALIA        PTCLDY    63  54  72 SE8       30.03R
6HR MIN TEMP:  61; 6HR MAX TEMP:  67;

WHITEMAN AFB   MOCLDY    67  56  66 S13       29.99R
WARRENSBURG    CLOUDY    68  54  60 SE10      29.99R
OSAGE BEACH    PTCLDY    63  52  67 S6        30.06R

$$
MOZ051-052-059>065-061300-
...EAST CENTRAL MISSOURI...

CITY           SKY/WX    TMP DP  RH WIND       PRES   REMARKS
ST LOUIS INTL  PTSUNNY   68  55  63 S9        30.13R
6HR MIN TEMP:  67; 6HR MAX TEMP:  74;

SPIRIT OF STL  MOSUNNY   65  54  67 S5        30.12R
6HR MIN TEMP:  62; 6HR MAX TEMP:  69;

ST CHARLES     MOSUNNY   62  57  83 E6        30.12R
6HR MIN TEMP:  58; 6HR MAX TEMP:  66;


$$
MOZ072>076-082>087-097>100-106>115-061300-
...SOUTH CENTRAL AND SOUTHEAST MISSOURI...

CITY           SKY/WX    TMP DP  RH WIND       PRES   REMARKS
CAPE GIRARDEAU SUNNY     60  55  83 CALM      30.15R
6HR MIN TEMP:  57; 6HR MAX TEMP:  63;

FARMINGTON     SUNNY     55  54  94 CALM      30.19R
6HR MIN TEMP:  54; 6HR MAX TEMP:  63;

POPLAR BLUFF   SUNNY     57  54  89 CALM      30.13R
6HR MIN TEMP:  54; 6HR MAX TEMP:  60;

WEST PLAINS    CLEAR     56  50  80 CALM      30.12S
6HR MIN TEMP:  55; 6HR MAX TEMP:  64;


$$



USA.gov is the U.S. government's official web portal to all federal, state and local government web resources and services.